User: anonymous   Login
Location: Chiroubles
(46.1812°N, 4.6660°E)
Time: 15:59:26
(UTC+00:00)
Language:

Tiros 1 despin weight - Orbit

View from above orbital plane
View from above orbital plane
View from above satellite
View from above satellite

Ground track
Ground track

The orbit data is extracted from the following two-line orbital elements,

1   115U 60002D   20330.88960599 +.00000093 +00000-0 +37999-4 0  9990
2   115 048.1660 217.9138 0034725 240.8378 118.9057 14.83651417215782
Epoch (UTC): 25 November 2020 21:21:01
Eccentricity: 0.0034725
inclination: 48.1660°
perigee height: 593 km
apogee height: 642 km
right ascension of ascending node: 217.9138°
argument of perigee: 240.8378°
revolutions per day: 14.83651417
mean anomaly at epoch: 118.9057°
orbit number at epoch: 21578

The dashed part of the orbit path shows where the satellite is in the earth's shadow,  

DLR